#timestamp,LO_Frequency,Hit,StdDev 
1564056015.8,286046998.5,N
1564056035.6,286046998.5,N
1564056055.5,286046998.2,N
1564056075.3,286047001.1,N
1564056095.1,286046998.2,N
1564056115.9,286046998.9,N
1564056135.7,286046998.1,N
1564056155.6,286047000.7,N
1564056175.4,286047000.8,N
1564056195.2,286047002.7,N
1564056215.1,286047002.3,N
1564056216.0,286047002.3,N
1564056235.8,286047002.7,N
1564056255.6,286047000.1,N
1564056275.5,286047000.3,N
1564056295.3,286046999.9,N
1564056315.2,286046999.9,N
1564056335.9,286046998.7,N
1564056355.7,286046999.4,N
1564056375.6,286046999.6,N
1564056395.4,286046999.6,N
1564056415.2,286046996.5,N
1564056435.1,286046998.8,N
1564056436.0,286046998.8,N
1564056455.8,286046999.1,N
1564056475.7,286046996.6,N
1564056495.5,286046999.1,N
1564056515.3,286046996.6,N
1564056535.2,286046999.4,N
1564056555.1,286046998.6,N
1564056575.9,286046998.8,N
1564056595.7,286047001.2,N
1564056615.5,286047000.8,N
1564056635.4,286047000.2,N
1564056655.2,286047002.0,N
1564056675.0,286047000.3,N
1564056676.0,286047000.3,N
1564056695.8,286047000.9,N
1564056715.6,286047002.3,N
1564056735.5,286047002.8,N
1564056755.3,286046999.7,N
1564056775.2,286047000.9,N
1564056795.9,286046998.5,N
1564056815.7,286047000.7,N
1564056835.6,286047000.9,N
1564056855.4,286046998.9,N
1564056875.2,286046998.5,N
1564056895.1,286047000.0,N
1564056896.0,286047000.0,N
1564056915.8,286046999.7,N
1564056935.7,286047000.9,N
1564056955.5,286047001.2,N
1564056975.3,286047001.1,N
1564056995.2,286047000.1,N
1564057015.0,286046999.9,N
1564057015.9,286046999.9,N
1564057035.8,286047000.0,N
1564057055.6,286046999.9,N
1564057075.4,286046999.9,N
1564057095.3,286047000.8,N
1564057115.1,286047000.3,N
1564057135.9,286047002.3,N
1564057155.7,286047000.2,N
1564057175.5,286047002.5,N
1564057195.4,286047001.8,N
1564057215.2,286047002.5,N
1564057235.0,286047003.1,N
1564057236.0,286047003.1,N
1564057255.8,286047003.7,N
1564057275.6,286047003.1,N
1564057295.5,286047001.5,N
1564057315.3,286047001.6,N
1564057335.1,286047001.7,N
1564057355.9,286047002.8,N
1564057375.7,286047002.3,N
1564057395.6,286047002.7,N
1564057415.4,286047004.3,Y
1564057435.2,286046999.9,P
1564057455.1,286046999.9,N
1564057456.0,286046999.9,N
1564057475.8,286046999.7,N
1564057495.7,286047004.1,Y
1564057515.5,286047001.9,P
1564057535.3,286047001.3,N
1564057555.2,286047003.3,P
1564057575.0,286047002.2,N
1564057575.9,286047002.2,N
1564057595.8,286046999.7,N
1564057615.6,286047002.1,N
1564057635.4,286047001.8,N
1564057655.3,286047002.4,N
1564057675.1,286047002.7,N
1564057695.9,286047002.6,N
1564057715.7,286047001.8,N
1564057735.5,286047002.3,N
1564057755.4,286047000.7,N
1564057775.2,286047001.2,N
1564057795.0,286047000.1,N
1564057795.9,286047000.1,N
1564057815.8,286047002.6,N
1564057835.6,286047000.5,N
1564057855.5,286047001.0,N
1564057875.3,286046998.4,N
1564057895.1,286046998.7,N
1564057915.9,286047000.6,N
1564057935.7,286047000.6,N
1564057955.5,286047001.0,N
1564057975.4,286047000.7,N
1564057995.2,286047001.2,N
1564058015.1,286047000.4,N
1564058016.0,286047000.4,N
1564058035.8,286047001.0,N
1564058055.6,286047000.4,N
1564058075.5,286047000.0,N
1564058095.3,286047004.3,Y
1564058115.2,286046999.8,P
1564058135.9,286047000.1,N
1564058155.7,286047001.0,N
1564058175.6,286047000.6,N
1564058195.4,286046999.8,N
1564058215.3,286047001.9,Y
1564058235.1,286047001.6,P
1564058236.0,286047001.6,N
1564058255.8,286047002.0,P
1564058275.7,286047004.3,Y
1564058295.5,286047002.6,P
1564058315.4,286047002.3,P
1564058335.2,286046999.8,N
1564058355.0,286047002.8,N
1564058355.9,286047002.8,N
1564058375.8,286047002.7,N
1564058395.6,286047000.6,N
1564058415.4,286047000.7,N
1564058435.3,286046998.6,N
1564058455.1,286046998.9,N
1564058475.9,286046998.2,N
1564058495.7,286046998.2,N
1564058515.5,286046999.4,N
1564058535.4,286046999.6,N
1564058555.2,286046999.6,N
1564058575.0,286046997.0,N
1564058576.0,286046997.0,N
1564058595.8,286046996.6,N
1564058615.6,286046997.1,N
1564058635.5,286046997.6,N
1564058655.3,286046997.5,N
1564058675.1,286046996.8,N
1564058695.9,286046997.5,N
1564058715.7,286046997.8,N
1564058735.6,286046997.3,N
1564058755.4,286046998.0,N
1564058775.2,286046996.2,N
1564058795.1,286046995.7,N
1564058796.0,286046995.7,N
1564058815.8,286046996.0,N
1564058835.7,286046996.4,N
1564058855.5,286046994.1,N
1564058875.3,286046994.3,N
1564058895.2,286046992.1,Y
1564058915.0,286046995.9,P
1564058915.9,286046995.9,P
1564058935.8,286046995.3,P
1564058955.6,286046995.1,Y
1564058975.4,286047001.1,P
1564058995.3,286047000.8,N
1564059015.1,286047000.9,N
1564059035.8,286047000.0,N
1564059055.7,286047000.6,N
1564059075.5,286047001.2,N
1564059095.4,286047000.6,N
1564059115.2,286047001.0,N
1564059135.0,286047001.0,N
1564059135.9,286047001.0,N
1564059155.8,286047000.7,N
1564059175.6,286047000.7,N
1564059195.5,286046998.1,N
1564059215.3,286046998.3,N
1564059235.1,286047001.1,N
1564059255.9,286046998.7,N
1564059275.7,286047000.3,N
1564059295.5,286047001.2,N
1564059315.4,286046998.1,N
1564059335.2,286046998.1,N
1564059355.1,286046998.6,N
1564059356.0,286046998.6,N
1564059375.8,286047000.5,N
1564059395.6,286047000.9,N
1564059415.5,286047000.9,N
1564059435.3,286047001.1,N
1564059455.2,286046999.9,N
1564059475.9,286047001.0,N
1564059495.7,286046998.1,N
1564059515.6,286047000.6,N
1564059535.4,286047000.8,N
1564059555.3,286047000.7,N
1564059575.1,286047000.8,N
1564059576.0,286047000.8,N
1564059595.8,286046998.2,N
